Theta_e
350 352 355 358 358 359 359 359 359 358 358 357 356 355 354 354 354 355 354 354 352 351 350 349 348 348 349 349 349 348 348 348 348 349 349 353 351 351 352 352 353 353 352 353 352 352 352 352 351 351 350 351 351 351 351 351 350 350 349 350 349 350 349 348 348 349 348 348 347 347 347 348 348 346 345 346 345 344 343 342 340 336 338 340 342
350 353 354 356 357 359 359 359 359 358 358 357 355 355 354 354 355 355 354 352 350 350 349 349 349 349 350 349 348 349 348 349 349 349 348 351 351 351 351 352 353 353 353 352 352 351 351 351 351 351 351 351 351 351 350 350 350 349 349 349 349 350 350 349 349 349 348 348 347 347 346 346 346 345 344 344 344 343 342 341 340 337 337 341 342
350 352 353 355 358 358 359 358 358 357 357 356 355 354 355 355 354 353 352 350 350 349 349 349 349 349 349 349 348 349 349 349 349 349 349 351 351 352 351 352 352 352 352 352 352 352 351 351 352 351 351 351 351 350 350 350 349 349 349 349 349 349 349 349 349 349 349 348 347 347 346 346 345 344 343 342 342 342 341 340 340 340 336 341 341
349 350 352 355 358 357 357 358 357 357 356 356 355 355 355 354 353 352 350 350 349 350 349 349 349 348 349 349 349 349 349 349 349 350 351 351 352 352 352 352 352 352 352 352 351 352 351 351 351 351 350 351 350 351 349 349 349 348 349 349 349 349 348 349 349 349 348 349 348 345 342 338 341 343 344 343 341 339 339 340 340 340 339 339 339
349 350 350 353 354 357 357 357 356 356 356 355 355 355 354 353 352 351 350 349 349 349 349 349 348 348 349 349 349 349 349 349 350 351 351 351 351 351 351 352 351 352 353 352 352 352 351 351 351 351 351 351 350 350 349 349 349 349 349 349 349 348 348 348 349 349 349 350 347 342 337 337 337 341 342 342 342 340 339 338 337 338 338 338 338
349 350 350 349 353 355 356 356 355 356 355 354 354 354 353 352 352 350 349 349 349 349 349 349 348 348 348 347 348 349 349 350 352 352 352 352 352 352 352 352 351 352 353 352 352 352 352 350 351 351 351 351 350 349 348 348 349 348 348 347 347 347 346 346 347 348 348 350 349 344 333 334 334 336 340 339 340 340 340 339 339 338 338 337 338
350 349 349 350 351 354 355 355 355 355 355 354 354 353 353 352 352 350 349 349 348 349 348 348 347 349 347 348 349 350 350 352 353 353 352 352 351 351 352 351 351 351 351 352 351 352 351 350 351 350 350 350 350 350 349 348 348 348 346 344 344 343 345 345 346 347 349 347 344 334 330 331 332 333 340 340 340 339 338 341 341 340 339 338 338
348 347 347 350 351 355 354 355 355 354 354 354 353 353 352 352 351 350 349 348 348 347 348 348 347 347 347 348 351 352 352 353 353 352 352 351 351 350 351 352 351 351 350 350 351 350 350 350 350 351 350 350 350 349 348 347 346 345 344 342 343 344 344 344 344 344 345 343 336 333 333 333 333 337 342 341 341 344 345 345 346 345 344 343 342
346 347 351 351 351 354 354 354 354 354 353 352 352 351 351 351 350 349 348 348 347 347 347 347 346 347 347 348 350 352 352 352 352 352 352 351 351 351 351 351 350 349 349 350 351 351 349 350 350 349 350 350 349 348 347 345 344 342 342 342 342 343 345 345 345 348 346 337 336 332 333 336 337 340 344 345 345 345 345 344 343 344 345 345 344
346 351 351 350 350 354 354 353 353 352 352 351 351 350 350 349 349 348 347 347 347 347 347 346 346 347 347 348 350 352 352 352 352 352 352 351 351 351 350 350 350 349 349 348 348 348 349 349 349 349 350 349 347 346 346 344 343 341 341 341 343 343 343 345 346 346 337 338 339 339 340 344 340 340 342 344 345 346 344 344 343 343 343 343 343
350 350 351 350 350 353 353 353 353 352 352 351 350 350 349 349 348 348 347 347 347 347 347 346 346 347 347 348 350 351 352 352 353 352 352 352 351 351 350 349 349 348 348 348 349 349 349 349 349 349 349 348 347 346 345 345 343 342 342 342 342 345 344 346 347 334 333 335 340 339 342 344 339 339 343 344 344 344 343 342 343 342 341 341 341
350 351 350 350 355 352 353 353 352 352 351 350 350 349 349 348 348 347 347 347 347 346 346 347 348 346 347 348 349 351 352 352 353 352 352 351 351 350 350 349 348 348 347 348 349 349 350 349 349 348 348 347 347 346 344 343 342 342 341 342 343 344 345 346 344 336 334 338 338 335 336 337 338 341 343 343 343 342 342 342 342 341 341 340 340
349 350 350 349 349 352 352 351 351 351 351 350 350 349 349 349 348 348 347 348 347 347 347 346 347 349 349 348 349 351 351 352 352 351 351 350 350 350 349 349 347 346 347 348 348 348 348 348 348 348 347 347 347 345 344 342 342 340 342 342 343 343 344 346 342 333 333 335 336 337 337 338 340 343 343 342 343 342 341 341 341 341 340 339 338
349 349 349 348 348 354 352 351 351 351 351 350 350 350 349 349 348 348 348 349 347 347 349 349 349 348 348 348 349 350 351 351 351 351 350 350 349 349 349 348 347 346 347 347 348 348 348 348 348 347 347 347 345 345 343 341 341 342 342 342 342 342 345 345 342 336 335 335 336 337 338 338 338 342 342 342 341 340 341 341 340 340 339 337 336
350 349 348 348 348 348 353 351 351 351 351 351 350 350 349 348 348 348 348 348 347 347 349 347 347 347 347 347 349 350 350 350 350 350 349 349 349 348 349 348 347 346 347 347 348 348 348 348 347 347 347 346 345 343 343 341 339 341 341 339 343 344 344 339 335 334 335 336 336 335 336 336 342 341 339 339 339 339 339 339 339 338 337 336 336
351 348 348 347 346 347 348 352 351 351 351 350 350 349 349 349 349 348 349 349 350 349 349 348 348 347 349 349 349 349 349 349 349 349 349 348 348 348 348 348 347 346 347 347 348 348 348 347 347 346 345 345 344 343 342 341 340 340 340 340 342 343 344 345 338 336 335 335 335 335 334 335 342 340 337 338 338 338 337 337 337 337 336 336 335
350 349 345 344 346 345 345 347 349 351 350 350 350 349 349 350 350 349 350 350 349 349 349 348 349 350 349 349 349 349 349 348 348 348 348 348 348 347 347 347 347 346 347 347 348 348 348 347 346 346 345 344 343 342 341 341 340 340 338 342 341 345 347 352 334 334 334 336 335 334 332 334 338 339 337 336 337 336 337 336 336 335 335 335 334
350 347 344 345 344 344 345 345 347 347 348 349 350 349 350 350 350 350 350 350 350 350 351 351 350 349 349 348 348 349 348 348 348 348 348 347 348 348 347 347 347 347 347 347 348 348 347 347 347 346 344 343 343 341 340 338 338 339 339 341 344 346 348 351 336 336 337 338 334 335 334 339 339 337 336 335 335 335 336 335 334 337 337 336 336
350 346 345 344 343 344 343 345 347 345 347 347 348 348 349 350 350 350 350 350 350 350 351 350 350 349 349 348 348 348 348 347 348 347 347 347 346 346 346 346 346 346 346 347 347 348 347 347 346 345 344 343 342 341 339 336 337 340 340 342 343 346 346 344 334 334 336 334 333 333 333 339 339 338 338 337 336 336 335 335 335 335 335 335 335
346 345 349 351 345 343 344 344 345 345 346 347 348 348 349 350 350 350 349 349 349 349 350 350 349 349 348 348 348 348 348 347 347 346 346 346 346 347 345 345 346 346 345 347 347 347 348 347 346 344 343 342 341 340 339 339 338 339 340 342 343 344 339 341 335 334 334 334 334 333 339 339 338 337 337 336 335 334 334 335 334 334 334 334 333
342 345 348 350 349 346 345 345 346 346 346 347 349 348 348 350 350 350 349 348 348 349 349 349 349 349 348 350 350 349 348 347 345 343 346 345 346 346 345 344 345 344 345 346 347 347 347 346 345 344 343 342 341 339 338 337 340 338 342 340 343 337 339 334 335 335 333 334 334 334 340 337 336 335 335 335 335 334 333 332 332 334 333 331 331
342 343 345 347 347 347 349 347 348 349 348 348 348 349 348 348 348 349 348 348 348 348 348 348 348 347 349 349 349 348 348 346 346 345 344 343 345 346 345 344 344 344 345 346 347 347 346 346 345 344 343 342 340 337 338 339 339 341 339 339 339 335 343 339 337 335 334 333 334 335 337 336 335 335 335 334 334 334 333 333 332 333 332 332 332
339 342 342 345 344 346 349 348 348 348 346 345 346 348 347 347 347 347 347 349 347 346 346 345 345 345 346 345 349 350 347 346 349 345 345 346 346 345 345 344 344 344 346 345 346 347 346 346 345 344 343 342 340 334 333 332 334 338 339 338 336 339 342 338 336 334 333 333 332 336 335 335 335 334 334 335 334 332 332 333 332 332 332 332 332
340 343 342 344 344 345 347 348 348 345 346 345 342 346 348 350 349 346 346 346 348 348 346 346 347 349 345 349 347 346 345 347 346 345 347 345 344 344 344 344 344 345 346 345 346 346 346 346 345 345 344 340 337 334 331 332 334 334 335 338 338 340 340 336 334 334 332 332 331 336 336 336 335 335 334 333 333 333 333 333 333 332 332 331 331
341 342 344 342 342 345 347 347 347 346 344 342 342 341 342 344 346 346 347 348 343 344 344 342 344 343 348 347 346 345 345 344 344 345 345 344 342 341 342 341 343 343 346 343 344 344 344 344 343 344 341 338 337 340 333 333 336 336 337 339 341 340 339 337 335 333 332 332 333 336 335 334 334 335 335 334 334 334 333 333 332 331 332 332 332
342 339 342 342 342 345 346 347 346 344 343 342 342 343 344 342 343 346 346 346 345 345 344 342 343 344 347 347 348 346 345 343 344 345 344 346 341 338 339 340 340 340 344 342 343 345 343 343 339 338 338 339 340 340 338 337 338 342 338 341 342 341 337 335 334 333 332 332 332 335 335 334 335 334 335 335 333 332 333 332 331 331 331 332 332
338 339 342 342 343 345 346 345 344 343 341 342 344 341 341 343 344 345 344 345 346 345 343 343 342 344 346 346 346 346 343 342 343 343 343 342 341 339 337 339 338 337 338 338 340 345 343 342 339 337 338 340 340 337 341 342 341 337 338 336 337 337 336 335 334 333 332 331 333 335 333 332 334 334 333 332 334 333 332 332 330 329 330 332 332
338 339 342 343 343 345 345 345 343 344 342 345 344 342 341 340 343 346 345 347 347 345 343 344 343 344 344 346 346 347 345 342 340 342 341 341 341 342 338 338 337 337 336 336 339 339 340 341 340 337 337 338 339 340 339 338 342 340 335 339 338 340 341 334 334 333 332 331 332 333 333 333 333 331 330 332 332 332 330 331 331 331 330 331 331
337 339 341 343 344 344 345 344 343 342 343 344 342 344 343 343 343 344 344 345 346 345 346 346 343 344 345 346 345 347 345 344 343 342 342 342 343 343 343 345 338 337 337 335 337 340 341 342 340 338 338 338 338 340 335 338 341 342 338 336 339 338 337 334 333 333 332 331 331 332 334 334 333 332 332 333 333 333 332 332 332 333 332 331 329
339 339 339 341 343 345 345 344 343 342 344 344 344 342 343 342 343 344 345 344 344 345 346 346 346 347 347 346 347 347 345 344 343 343 342 342 343 342 344 340 342 346 338 334 339 341 341 342 341 338 336 338 335 337 341 339 336 339 338 337 338 339 339 335 334 333 333 332 331 333 335 335 335 334 332 333 331 332 334 331 329 330 330 329 328
340 340 341 341 342 344 343 346 345 346 344 343 344 343 344 342 342 344 344 345 346 346 344 344 346 345 345 346 346 346 345 345 344 344 343 343 343 343 342 343 341 339 337 336 341 341 340 340 341 339 340 338 342 336 338 337 333 336 338 334 338 339 337 341 337 334 333 331 331 332 333 335 334 334 334 334 331 331 331 331 330 330 329 330 330
341 340 341 343 343 344 346 347 346 347 343 343 344 343 343 343 343 343 342 343 348 346 347 346 345 346 345 344 345 345 345 346 346 345 343 343 342 341 343 341 341 342 338 336 336 340 340 339 340 341 344 347 341 338 335 335 332 332 336 338 338 338 337 337 336 335 334 331 330 330 331 332 334 334 334 332 331 332 332 331 331 330 330 330 330
342 344 343 344 345 346 345 345 346 346 344 343 342 343 344 344 345 344 345 345 348 347 345 343 345 343 343 343 344 343 344 347 347 346 345 343 343 342 341 340 341 342 341 339 337 339 340 341 345 343 347 343 342 338 336 335 333 333 335 336 338 337 335 336 337 336 334 333 332 330 330 331 331 336 335 334 332 332 332 330 330 329 330 330 331
342 344 345 344 345 346 345 346 346 345 345 345 345 344 345 346 347 347 347 348 347 348 345 345 344 343 342 341 341 343 345 349 346 347 345 344 341 340 340 340 342 341 341 339 339 339 336 338 340 342 342 338 337 334 333 334 332 336 338 336 336 336 336 335 336 338 338 335 335 331 331 329 330 330 332 333 332 331 332 330 331 331 332 331 330
343 344 344 346 345 346 346 345 346 347 346 346 345 346 347 347 346 347 347 350 347 346 346 345 344 343 341 340 341 342 343 344 346 346 341 341 342 341 340 341 343 343 342 341 341 340 337 335 338 337 341 341 340 338 336 336 336 335 336 338 337 337 338 338 337 337 337 339 337 335 334 331 330 330 330 330 333 333 331 330 331 332 331 331 331
345 346 346 347 345 347 346 346 346 348 347 348 347 350 348 350 349 346 350 352 348 345 346 347 345 348 346 344 340 341 344 342 341 342 345 343 342 341 341 342 341 343 340 340 342 337 336 335 337 338 336 333 336 336 340 336 338 336 336 337 340 337 337 338 337 337 336 336 335 336 335 334 332 330 333 329 328 331 334 331 332 332 332 331 331
347 347 345 346 346 347 347 347 346 347 348 348 348 348 353 349 350 349 345 347 349 345 346 343 344 343 346 343 342 342 343 340 340 341 341 341 343 343 344 343 342 342 341 339 339 339 337 339 341 338 337 333 335 336 334 335 336 334 335 337 339 338 338 337 337 337 340 336 335 336 336 336 336 338 332 329 329 328 332 332 332 333 331 332 331
345 347 347 347 347 347 347 348 348 348 350 350 349 350 349 350 349 345 345 342 344 347 346 346 342 343 339 340 340 342 342 341 342 344 342 340 339 339 341 342 341 341 340 338 335 337 338 339 335 337 337 336 336 333 334 337 335 335 332 336 338 337 338 337 338 340 339 335 336 337 340 337 335 332 332 329 329 327 330 334 333 333 333 333 333
346 346 347 348 348 347 348 347 347 349 349 351 349 349 349 348 347 346 343 345 346 345 348 344 340 342 341 339 337 341 345 345 346 346 342 342 342 339 341 340 341 341 339 337 337 338 338 338 336 334 337 336 332 331 333 335 334 334 334 332 338 337 338 339 339 338 339 338 340 339 340 337 338 334 333 331 329 328 331 330 330 330 331 336 334
347 347 346 346 345 347 347 347 347 348 347 348 346 347 346 345 341 343 341 344 345 348 346 344 342 341 341 339 338 340 343 342 342 346 345 343 342 341 341 341 340 340 338 335 335 336 335 335 335 334 335 336 335 333 334 333 332 332 331 332 336 337 339 338 338 339 337 337 339 339 338 340 336 334 335 335 331 332 330 330 331 331 332 335 336
344 345 344 344 345 343 345 343 345 346 345 343 343 343 343 343 343 341 345 344 340 343 342 342 343 342 342 341 341 340 340 342 343 342 344 342 341 342 341 340 339 338 337 337 336 336 337 336 337 335 332 332 332 332 334 336 330 327 330 331 334 337 337 337 336 337 335 336 339 335 335 335 336 333 335 336 336 335 332 331 332 334 333 332 334
339 341 341 341 342 342 342 342 345 345 344 345 345 343 346 343 342 341 342 342 343 340 340 339 339 339 340 342 343 342 341 341 341 340 341 341 340 340 340 339 339 338 338 338 338 337 336 336 335 333 334 331 328 331 335 331 326 325 324 326 329 334 334 335 335 335 335 336 336 336 335 333 334 334 335 335 335 335 336 333 334 335 335 333 333
337 336 338 339 339 339 340 341 342 343 343 344 344 342 345 345 343 345 343 343 344 342 341 340 341 341 342 341 341 341 340 339 340 339 341 342 341 339 339 340 340 339 338 337 338 337 337 335 334 332 330 331 330 332 333 331 327 329 328 325 321 321 326 329 334 335 335 334 336 335 334 334 335 334 335 334 333 334 335 336 336 335 334 334 334
333 334 335 336 337 337 339 340 341 342 343 343 342 345 345 347 347 346 345 347 343 344 344 343 343 341 339 340 341 342 341 341 341 337 339 342 341 339 340 340 340 340 338 337 335 335 336 335 334 333 331 327 328 328 332 334 331 327 319 320 322 322 317 321 325 330 334 334 334 333 334 334 335 334 335 332 332 333 333 332 333 334 335 334 336
330 331 333 333 335 336 337 339 340 341 342 342 344 345 344 344 347 345 347 345 345 342 343 341 340 340 340 342 342 342 341 341 342 341 340 341 341 340 340 340 340 339 338 336 335 335 336 336 335 332 331 329 326 328 331 333 333 331 325 323 321 317 317 322 325 327 332 331 332 333 333 334 333 334 333 333 333 333 332 333 334 332 337 336 334
328 330 332 332 333 333 334 337 338 339 339 341 343 342 342 343 342 339 338 339 338 338 334 336 338 337 337 342 343 343 342 341 341 341 341 341 340 340 340 339 340 339 337 336 336 337 335 334 335 332 330 331 329 329 328 331 332 331 331 331 334 321 320 324 323 317 329 332 332 333 332 333 333 333 333 332 331 330 332 332 334 334 336 335 335
326 329 330 331 332 332 333 335 337 337 339 339 341 341 341 340 340 338 339 338 337 338 343 344 342 342 341 341 343 346 342 341 342 341 341 341 340 340 340 339 339 339 338 336 335 335 335 333 335 335 332 332 331 327 327 327 331 330 332 331 335 334 334 325 320 323 318 325 329 329 330 333 333 333 332 332 331 331 330 333 333 334 334 335 335
326 327 328 329 329 330 332 332 334 335 336 337 338 340 338 338 338 338 337 336 339 338 340 341 344 343 341 342 342 344 344 343 341 341 341 340 340 340 339 338 338 340 338 336 335 335 336 335 335 336 334 333 332 328 327 328 325 327 330 328 329 333 334 333 330 322 321 319 322 328 330 331 329 331 331 330 330 331 331 332 334 333 333 335 335
324 325 326 327 328 328 330 330 330 332 332 334 335 337 338 338 338 337 336 337 337 337 337 339 340 342 341 341 340 341 343 343 343 342 341 339 338 340 340 338 337 335 337 337 335 335 335 334 333 332 331 331 332 331 330 328 328 325 326 326 328 331 332 332 331 329 324 320 319 321 322 328 329 330 331 332 331 332 332 331 332 333 332 334 335
324 324 324 325 325 326 327 327 326 328 330 331 332 333 335 336 336 335 335 335 335 336 337 336 337 338 337 339 336 336 338 339 342 342 340 340 336 335 338 338 336 336 336 335 334 334 331 332 332 332 332 332 333 332 329 330 330 330 329 328 327 329 328 327 328 327 328 325 319 321 323 322 320 325 331 332 332 331 332 333 332 333 332 332 335
322 322 323 323 324 323 324 324 324 326 327 328 330 331 332 333 333 333 333 333 333 333 333 333 334 334 335 336 339 336 335 337 340 339 338 337 336 337 336 337 338 337 336 334 334 333 333 333 334 333 333 332 332 332 330 330 330 328 330 331 330 329 327 325 324 326 325 321 320 322 324 325 323 323 328 331 331 330 331 333 331 330 331 331 335
Wind_Speed
12 15 12 14 15 16 16 16 16 16 16 16 16 16 16 17 17 17 16 16 15 14 13 12 11 11 12 11 11 11 11 11 12 11 9 8 13 12 13 14 15 14 14 15 14 14 14 14 14 14 14 14 15 14 15 16 15 15 16 16 15 16 15 15 16 16 16 16 16 16 15 14 15 14 15 15 16 16 14 15 14 11 8 12 16
15 14 11 12 15 16 17 17 16 16 16 17 16 17 17 17 17 16 16 15 15 13 12 12 11 11 11 11 12 12 12 11 11 11 9 9 11 12 13 14 14 14 14 14 14 13 13 14 14 14 15 15 15 15 15 15 14 14 14 14 14 14 14 14 14 15 16 16 17 17 16 16 15 16 16 16 16 16 16 15 15 9 6 14 16
16 14 12 13 17 16 16 17 18 17 16 16 17 17 17 16 16 16 16 15 14 13 12 11 11 11 10 12 12 12 12 11 10 9 10 11 11 12 13 14 14 14 14 14 14 13 13 13 14 14 15 15 15 15 15 14 14 13 13 13 12 12 12 13 13 14 15 17 17 17 18 16 16 15 16 16 16 15 15 15 15 13 9 15 14
17 13 12 13 15 15 16 18 18 18 17 16 17 17 16 15 16 16 16 15 13 13 11 10 11 10 11 10 11 12 12 10 10 11 12 11 11 12 13 14 13 13 14 14 13 13 13 14 14 14 15 15 15 14 14 14 13 12 12 11 10 10 9 10 9 12 14 17 17 14 8 7 10 15 15 15 15 15 15 15 16 16 16 15 16
17 13 13 12 13 14 15 17 17 18 17 17 17 17 17 16 16 16 15 14 13 12 10 10 11 11 10 10 11 11 10 11 11 11 11 11 11 12 13 13 13 14 13 13 13 14 14 14 14 15 15 15 14 14 14 13 13 11 9 8 8 7 8 6 7 7 10 12 13 11 9 9 7 13 14 15 15 15 16 16 15 14 14 15 15
15 12 11 11 12 13 15 16 18 18 17 17 17 16 16 16 16 15 15 14 13 11 10 10 10 9 11 11 11 10 10 11 12 12 11 11 11 12 13 13 14 13 13 12 13 14 14 14 14 14 14 14 14 13 13 12 11 10 8 7 4 4 3 4 6 6 8 7 5 3 9 8 7 8 14 14 14 15 15 16 16 15 14 16 15
14 11 11 12 11 12 14 15 18 17 17 17 17 16 15 15 15 15 15 14 13 12 11 10 9 8 11 11 10 10 11 12 13 12 12 11 12 12 13 14 14 14 13 12 12 13 14 14 14 14 14 14 13 13 11 11 10 8 6 3 2 2 4 4 3 5 7 5 2 3 8 9 7 7 14 13 13 15 16 16 15 15 15 15 16
12 10 12 11 11 12 14 16 17 17 17 16 16 16 15 15 14 14 14 14 12 12 11 10 9 9 9 9 10 10 11 12 13 13 12 12 12 12 13 13 13 13 13 13 12 13 13 13 14 13 14 14 13 12 11 9 8 7 3 0 2 5 8 5 5 5 6 6 2 8 7 7 7 8 12 13 15 16 16 16 17 16 16 16 15
11 12 13 12 12 15 14 15 16 17 16 16 16 16 15 14 14 14 13 13 12 12 11 10 9 9 8 8 10 10 10 11 13 13 13 13 13 13 13 13 13 12 11 10 9 10 12 13 13 13 14 13 13 11 10 9 7 3 2 4 6 7 10 10 11 9 6 5 9 7 9 9 8 9 13 14 16 17 16 15 14 16 17 17 16
12 14 12 12 13 13 14 14 15 16 16 16 16 15 15 14 13 14 13 12 12 12 11 10 10 9 7 9 10 10 9 10 11 13 13 14 13 12 12 12 13 12 12 11 10 11 11 11 12 13 13 13 12 10 10 8 4 3 2 4 5 8 8 10 10 10 3 10 12 13 11 13 9 8 12 15 17 17 17 17 13 13 13 17 17
15 13 11 13 16 12 13 14 15 15 16 15 15 15 15 14 14 13 13 13 12 12 11 11 10 9 8 9 11 10 10 9 10 13 13 12 13 12 12 12 12 11 10 10 10 9 10 11 11 13 13 12 10 10 8 7 3 1 3 4 6 7 9 11 9 2 8 9 11 10 13 15 7 6 13 15 16 17 16 15 14 14 14 15 16
14 12 12 13 18 14 13 14 14 14 15 15 15 15 15 14 14 13 13 12 12 12 11 10 8 8 9 10 10 10 10 10 10 12 13 12 12 12 12 11 11 11 10 8 7 8 9 11 11 11 11 11 10 9 8 6 2 1 4 5 6 9 11 12 9 2 9 13 11 9 10 10 9 10 14 14 15 15 15 15 15 15 15 14 15
14 12 13 14 14 14 13 13 14 14 15 15 15 15 14 13 13 13 12 10 11 11 11 10 9 7 7 9 11 10 10 10 12 12 12 11 11 11 11 10 10 11 9 8 7 7 7 9 10 10 10 10 9 8 7 4 1 3 5 8 9 10 11 14 3 10 7 9 8 10 10 7 8 13 13 13 14 14 14 14 14 14 14 13 12
14 14 13 12 13 17 13 13 13 14 14 14 14 13 13 12 12 12 11 9 11 10 8 8 8 7 6 9 10 10 10 10 11 12 12 11 10 10 9 9 9 10 9 8 8 7 7 8 9 9 9 9 8 8 6 3 1 4 7 9 9 9 11 10 11 7 9 10 9 10 8 6 7 12 13 13 13 13 13 14 14 14 13 12 12
14 14 13 13 13 14 17 13 12 13 12 12 11 12 12 12 11 10 10 12 11 10 9 9 8 9 8 8 10 10 9 10 10 11 10 10 9 9 8 7 8 9 9 8 8 8 7 8 8 8 9 9 8 7 5 2 3 5 8 7 9 9 10 6 2 7 8 8 8 10 8 6 8 10 12 12 11 12 12 13 13 13 13 13 12
16 15 14 13 13 13 13 15 14 12 11 12 11 12 12 11 11 11 10 9 9 9 9 8 8 8 7 8 9 9 10 9 9 9 9 8 8 7 7 6 7 8 8 8 7 8 8 8 8 8 8 8 8 6 4 3 4 4 7 7 8 9 10 7 2 7 7 8 8 8 7 6 9 10 11 11 11 10 11 12 12 12 12 12 12
15 15 14 14 14 13 12 12 13 14 12 12 11 12 12 10 10 9 8 9 10 9 10 8 8 9 9 8 8 9 9 9 9 8 8 8 7 6 6 5 6 7 7 7 7 7 8 8 8 8 8 7 7 6 3 3 3 3 5 7 8 8 9 10 6 5 6 8 8 7 6 6 9 9 11 10 10 10 11 12 12 11 12 14 13
12 14 14 14 13 12 11 11 12 11 9 10 10 10 10 10 8 8 8 9 9 9 9 8 9 9 9 8 7 8 8 9 9 8 7 6 6 4 4 4 4 5 6 6 6 8 8 8 8 8 7 7 6 5 4 1 2 4 7 7 8 9 9 11 5 7 10 11 9 8 6 7 10 9 10 10 10 10 10 9 11 14 14 12 12
9 6 13 13 12 12 11 10 9 9 8 6 6 8 10 9 8 9 9 9 9 10 9 9 9 8 7 7 7 8 8 8 8 8 6 6 5 3 3 3 3 4 4 5 5 7 7 8 8 7 7 7 6 5 3 1 3 6 7 8 9 9 12 7 5 8 10 7 7 7 5 7 7 11 11 11 11 11 10 10 10 10 11 12 11
4 1 6 6 9 11 10 8 8 8 6 6 7 7 8 9 8 8 8 9 9 9 8 8 9 7 6 6 6 5 5 6 8 7 8 6 6 4 3 3 2 3 3 3 5 6 7 7 8 7 7 8 6 4 3 1 3 5 9 8 9 10 6 0 11 10 8 8 8 6 7 10 10 10 10 11 10 10 10 10 10 10 10 11 11
2 2 6 5 9 10 9 7 7 8 8 8 6 6 7 8 7 8 8 7 8 8 7 7 7 7 6 5 4 3 3 3 4 4 7 4 3 2 5 3 2 2 3 3 4 6 8 8 7 7 7 8 6 4 1 1 3 6 8 8 11 6 6 5 7 8 7 7 7 6 9 10 9 9 9 10 10 10 9 8 9 11 10 10 10
6 5 5 6 9 7 7 7 6 5 7 6 6 6 6 6 6 6 6 6 6 7 5 5 6 5 6 4 4 4 3 4 3 6 3 4 3 6 5 3 1 1 2 3 4 6 7 8 8 8 8 8 8 2 1 3 4 6 7 9 6 5 2 5 7 8 8 7 7 6 9 9 9 10 10 9 9 10 10 10 9 10 10 11 11
6 6 5 9 9 5 6 7 7 8 8 6 4 5 6 4 5 5 5 6 7 7 6 6 5 5 6 6 4 2 2 3 2 5 4 5 4 5 5 3 2 2 2 3 4 6 7 8 9 9 8 9 6 3 3 2 3 7 8 5 3 7 2 8 8 8 8 7 5 10 10 9 9 9 9 10 9 9 9 10 9 9 10 10 11
6 7 7 7 6 6 5 7 8 8 6 4 5 2 2 2 3 4 4 5 4 2 1 3 1 1 4 3 3 3 1 2 2 7 8 4 4 4 5 5 4 3 4 3 5 6 7 8 8 8 6 4 4 4 5 4 3 4 4 4 6 3 3 6 7 7 6 8 6 11 10 10 9 9 9 8 9 9 9 9 10 9 9 9 10
6 8 6 8 9 8 7 8 9 9 10 6 7 6 6 4 2 3 4 3 5 4 4 4 3 2 0 4 4 3 3 2 1 2 3 6 5 4 3 3 3 4 5 4 3 4 5 5 4 5 4 6 7 6 5 5 5 5 6 7 5 4 3 7 8 7 6 6 5 10 10 9 8 9 9 9 9 9 9 9 9 9 8 9 10
6 8 7 9 8 7 6 5 7 7 8 6 7 8 6 5 4 4 5 5 5 5 5 7 4 2 3 2 4 5 3 1 2 3 2 3 6 6 5 4 5 5 6 5 4 4 5 4 4 5 5 6 7 8 6 5 4 2 3 1 1 1 5 7 8 8 7 6 6 10 9 8 8 8 10 9 7 7 8 8 7 8 8 9 9
3 5 7 6 7 6 8 6 6 7 7 7 5 5 5 6 6 6 6 6 5 5 5 6 3 3 3 3 3 4 5 4 4 4 2 3 3 5 6 5 4 4 5 6 4 5 5 4 4 4 5 6 6 4 2 2 3 3 3 3 4 4 5 9 8 8 7 6 7 11 6 4 7 8 7 7 9 7 7 8 8 7 8 9 9
5 6 6 7 7 9 10 8 7 7 4 6 7 8 7 8 7 7 6 5 5 5 5 4 4 4 5 4 4 4 6 6 5 4 2 1 3 3 5 6 5 5 4 5 4 5 5 4 4 5 6 5 5 3 2 3 0 3 5 1 0 0 2 6 9 9 7 7 6 9 9 8 7 5 3 6 8 7 5 7 8 8 6 8 8
7 7 7 8 8 7 8 7 8 8 6 5 5 2 3 4 4 5 5 5 4 5 5 4 5 5 6 6 5 4 4 4 4 5 3 5 4 2 2 0 6 6 5 5 5 4 4 4 5 5 4 5 4 3 3 3 2 1 2 2 1 1 3 4 8 9 9 7 6 8 11 10 8 8 8 8 7 7 7 8 8 10 8 8 7
8 8 8 7 7 9 9 8 8 7 6 6 5 4 5 4 4 4 5 6 6 6 7 6 5 4 4 5 5 4 5 5 4 5 5 5 3 1 2 2 2 1 5 6 5 5 4 4 4 4 6 5 5 3 1 2 2 2 3 3 1 1 2 2 3 9 9 6 6 6 10 9 8 3 2 7 5 8 10 6 5 8 7 7 7
9 9 8 7 8 9 8 8 8 8 8 7 5 6 5 4 3 3 5 6 6 7 6 6 6 6 6 4 3 4 4 5 6 5 5 5 3 2 2 1 1 3 3 5 5 4 5 4 5 4 3 2 2 5 2 3 4 3 2 4 2 1 2 2 2 10 9 8 7 6 8 11 9 6 4 6 7 7 6 6 7 7 7 7 8
7 7 7 8 9 9 9 9 7 8 7 7 6 6 6 6 6 5 5 5 6 6 6 6 6 5 6 5 5 5 5 5 5 5 4 4 4 2 1 1 3 2 2 3 7 4 4 5 5 4 3 1 5 6 6 4 4 4 4 3 2 2 2 1 2 4 9 9 8 7 6 6 9 8 7 7 6 6 8 7 7 7 7 8 8
5 6 7 7 7 8 8 8 8 8 8 7 7 6 6 6 6 5 5 4 4 4 4 5 3 2 1 3 4 6 5 4 3 3 4 3 3 3 2 2 2 1 3 5 5 6 3 3 2 3 2 4 3 3 8 6 4 4 3 4 2 2 3 2 1 3 5 8 8 8 7 6 5 6 7 7 5 7 8 7 7 8 7 7 8
5 5 6 5 4 5 3 4 5 7 5 5 5 5 5 4 4 5 4 5 5 5 5 5 5 3 4 7 8 5 4 2 4 2 3 2 3 3 3 2 2 3 4 5 2 2 4 3 2 2 2 4 3 3 7 9 5 2 3 3 3 3 4 2 4 1 3 3 7 8 7 6 6 4 5 8 6 5 8 8 9 9 9 8 7
4 5 6 7 6 5 4 4 5 5 5 4 4 4 4 5 5 5 5 3 4 4 4 4 6 7 12 10 8 8 4 1 3 2 4 3 4 3 3 3 3 3 4 2 2 2 3 5 4 3 2 1 5 4 7 7 3 1 2 2 2 3 1 2 3 3 2 2 4 5 8 7 6 6 5 4 7 8 9 7 8 9 8 8 8
4 5 5 6 7 6 5 5 5 5 5 4 5 4 5 4 3 3 2 2 2 2 4 2 3 2 4 9 12 6 4 4 2 3 4 5 5 4 3 3 4 3 5 3 3 4 4 3 4 4 3 4 4 1 5 5 1 2 7 2 1 3 2 2 3 2 3 3 2 4 5 6 7 6 7 5 5 6 8 8 8 8 8 8 9
3 5 5 5 5 7 5 4 6 5 5 5 5 4 2 3 2 1 2 3 3 2 3 5 6 4 5 9 7 2 5 3 5 6 3 2 2 1 2 3 3 4 4 5 4 5 4 4 1 2 6 4 6 5 6 4 4 2 5 3 1 1 3 3 3 3 3 3 3 4 5 2 4 8 6 6 5 5 8 10 9 9 9 9 10
3 4 5 4 4 5 6 3 4 3 3 2 1 2 3 2 1 2 1 4 2 3 3 4 5 8 9 8 6 1 2 6 7 8 7 6 6 4 5 5 4 4 4 5 5 4 3 2 4 3 2 3 3 5 4 3 4 2 5 5 2 2 2 3 3 2 1 3 3 3 3 4 3 6 8 8 6 6 5 7 10 10 10 9 9
3 4 4 4 4 4 4 5 3 3 3 2 2 1 2 2 3 3 3 5 2 1 3 4 4 2 2 4 5 3 3 5 5 5 6 5 6 8 7 5 5 5 4 4 5 6 5 4 5 5 1 5 3 5 8 4 2 1 3 7 3 3 2 2 1 2 2 1 1 2 3 2 1 2 6 7 7 6 6 5 5 4 5 7 8
2 3 5 5 4 4 4 4 4 3 4 2 2 2 2 2 3 4 5 4 2 0 2 4 1 4 4 5 4 3 5 4 2 2 5 4 4 5 5 6 5 5 6 6 6 6 6 6 6 3 2 3 6 4 4 3 3 4 7 10 4 3 1 2 2 1 2 2 2 2 2 1 2 2 5 4 7 7 7 6 6 5 5 7 10
8 6 5 5 5 4 6 6 5 3 2 3 2 2 2 2 2 2 2 2 3 0 2 2 2 2 3 4 4 6 5 2 3 2 2 4 4 4 4 5 6 5 5 6 6 6 5 6 3 3 4 4 3 5 5 1 3 6 9 8 3 2 2 1 1 1 2 2 1 2 3 2 2 3 5 5 5 6 7 7 6 6 6 5 6
8 8 9 9 9 10 9 6 3 2 4 3 1 1 1 2 3 2 1 1 1 0 1 2 2 2 4 4 4 4 3 2 3 3 4 5 6 6 6 6 6 6 6 5 6 6 6 6 4 3 3 6 5 5 5 6 5 8 7 3 3 1 2 2 2 2 1 1 2 1 3 4 3 2 5 5 4 5 5 7 5 6 5 6 6
8 9 8 8 8 7 5 4 4 3 4 3 3 3 3 3 3 1 1 0 3 2 3 2 2 2 3 3 3 3 3 4 4 5 5 6 6 5 6 6 7 7 7 7 7 7 6 7 7 6 5 4 5 4 6 7 5 5 4 3 3 3 2 2 2 2 3 3 3 3 2 3 5 3 5 6 5 4 4 4 4 6 6 6 6
11 11 10 9 7 6 5 5 4 3 3 2 2 2 3 1 2 2 1 1 0 2 2 2 3 3 3 4 4 3 5 6 6 6 6 5 5 6 6 6 7 6 6 7 8 7 7 6 6 7 6 5 5 7 6 6 5 2 6 5 3 4 2 6 5 4 4 4 4 4 3 3 4 6 5 5 7 7 6 6 5 7 6 6 6
10 10 10 9 7 10 9 5 5 5 4 4 3 2 3 3 1 1 1 1 2 2 1 2 2 2 3 4 5 6 6 6 6 5 6 7 6 6 6 6 6 6 6 6 7 7 7 7 8 8 8 8 7 5 6 6 7 10 8 3 2 1 4 2 7 2 5 5 5 5 5 4 3 4 5 5 5 6 6 7 8 8 7 6 6
9 9 8 7 9 9 10 10 7 6 6 5 4 4 3 3 2 2 2 1 2 2 3 3 3 4 4 3 4 6 6 5 6 7 7 6 5 6 6 6 6 6 7 7 7 6 7 8 8 8 9 8 7 6 6 2 5 8 11 4 1 1 5 2 5 3 3 3 3 5 6 5 4 4 4 5 6 5 5 5 6 6 6 5 6
9 7 7 9 10 8 8 8 6 6 8 8 8 5 3 4 4 3 2 2 3 2 2 2 3 3 3 4 3 2 5 6 6 7 5 5 5 6 6 7 6 6 6 6 7 8 7 8 7 8 8 8 7 6 7 5 1 6 6 7 2 2 1 6 4 4 2 3 4 4 5 5 4 6 6 6 5 6 6 5 5 5 6 6 5
8 8 8 8 9 9 9 9 7 7 7 8 8 7 6 6 6 4 4 4 2 2 2 3 3 3 4 3 3 3 3 4 3 5 7 5 5 5 6 6 6 5 6 8 8 7 7 7 8 7 6 5 7 8 7 6 6 2 3 6 8 5 3 2 4 6 3 4 4 2 2 5 4 6 6 6 6 5 5 5 6 5 5 6 5
8 7 7 8 8 9 9 9 9 8 9 9 8 8 7 5 4 4 5 4 5 5 5 4 4 3 4 3 5 5 3 4 4 4 5 5 6 6 5 6 5 7 8 8 7 8 10 9 7 9 8 8 8 6 4 5 6 7 7 8 8 6 3 3 3 6 4 4 4 7 5 3 4 5 6 5 4 5 4 6 5 5 5 6 5
7 8 8 8 8 8 10 11 12 9 9 10 10 10 9 8 8 7 7 5 5 5 5 5 5 5 5 1 4 6 5 5 3 3 6 3 5 9 7 6 6 7 6 7 7 9 7 9 10 8 9 9 7 7 8 5 5 5 5 8 8 4 3 3 4 4 2 2 2 5 7 8 7 7 6 6 4 4 5 6 5 6 4 5 6
7 8 8 8 7 8 9 9 9 8 9 9 10 10 9 9 8 9 9 10 9 8 6 5 6 6 5 3 2 4 5 4 4 3 5 6 6 7 5 6 4 6 7 7 9 9 8 10 10 9 9 10 8 7 6 5 4 6 8 8 6 6 6 6 5 5 4 2 2 3 3 6 9 7 8 8 6 6 6 5 6 6 5 4 7
Wind_Direction
109 111 112 114 120 121 124 121 115 115 114 116 117 117 116 114 111 108 107 107 105 100 100 101 102 98 100 104 101 102 102 100 99 90 87 85 80 85 89 90 91 94 95 95 95 96 97 97 95 93 90 88 85 84 82 80 81 85 88 91 91 92 91 91 92 91 88 84 81 79 78 79 77 68 62 55 55 55 65 75 68 66 63 63 65
115 110 120 120 113 120 125 123 117 118 117 118 118 116 115 113 111 110 109 107 103 103 106 109 103 102 105 105 103 98 99 97 91 94 94 86 88 87 90 94 92 95 98 100 101 100 101 100 97 95 91 89 86 83 83 83 85 86 88 89 92 96 100 104 104 104 103 98 91 85 77 74 71 67 62 60 58 59 61 65 71 76 73 72 69
112 113 121 122 119 122 122 120 122 120 120 119 118 116 114 112 110 110 109 107 105 107 113 113 111 110 106 102 105 106 103 105 104 102 100 90 91 90 92 96 98 101 104 106 106 104 103 102 101 97 94 92 88 85 84 85 87 86 87 89 92 99 106 106 112 118 120 115 106 95 85 76 70 70 67 66 66 65 67 71 74 70 69 70 68
111 114 118 122 116 117 119 122 123 123 123 117 117 116 114 113 112 110 108 109 113 115 118 114 114 112 106 103 105 108 109 112 113 102 89 91 93 94 95 100 102 102 105 108 108 105 103 100 97 98 96 92 90 87 87 87 87 89 89 88 90 92 101 111 125 129 131 128 123 109 96 79 72 73 75 75 74 73 72 71 70 71 70 69 69
109 115 125 124 127 117 119 120 121 125 119 116 114 116 115 114 113 111 110 113 119 122 118 109 112 115 112 109 104 106 110 108 102 92 88 90 96 100 101 103 104 106 107 108 107 105 103 101 99 97 97 95 93 95 94 95 94 90 89 85 86 85 90 109 120 153 143 149 138 103 105 94 82 74 76 78 81 80 78 78 77 75 72 69 67
109 120 126 129 127 123 117 119 126 120 118 118 117 117 117 117 116 114 116 119 123 123 117 113 114 119 118 112 107 108 112 103 93 90 89 90 95 102 107 106 105 105 105 106 108 107 105 102 101 102 97 97 97 97 97 95 93 86 78 82 79 92 108 142 180 161 205 186 251 325 80 80 78 77 78 79 79 77 79 80 80 83 84 81 76
116 127 129 123 128 123 118 119 121 121 120 120 119 118 119 119 118 117 118 123 125 124 118 114 118 116 114 109 106 111 111 103 92 94 98 99 101 103 104 104 105 105 106 108 108 107 106 104 100 100 101 100 97 96 97 93 91 88 81 91 142 235 201 220 195 230 224 219 216 107 81 87 95 89 86 88 87 83 80 78 79 79 81 80 78
122 140 130 121 126 122 124 124 123 121 123 122 121 121 120 119 119 120 122 125 127 124 121 118 117 113 110 101 95 105 108 100 99 97 101 104 102 100 100 98 97 98 105 107 107 106 106 103 102 103 102 102 101 97 92 91 84 87 104 191 337 328 321 325 308 301 290 273 173 92 97 102 87 79 75 79 84 90 86 75 67 65 70 76 78
135 130 115 117 125 126 127 128 127 128 127 127 127 127 127 124 122 122 126 128 128 125 125 123 116 114 106 98 87 94 108 105 103 104 106 106 105 102 100 101 101 97 95 98 101 104 106 110 111 106 102 99 96 97 93 93 91 105 65 347 345 338 329 327 326 320 293 79 63 105 101 81 80 79 82 87 84 77 75 72 73 74 76 76 74
136 106 118 120 135 127 127 129 130 131 133 135 133 132 134 130 130 130 131 131 129 131 130 128 123 119 113 97 85 84 108 107 105 107 107 112 107 105 100 97 97 98 100 99 101 104 105 107 103 101 99 99 101 102 99 93 92 55 2 345 347 323 319 313 313 301 150 81 75 71 77 88 85 81 81 78 74 75 77 80 78 78 77 74 73
106 113 117 124 134 128 130 128 131 133 134 136 136 135 136 136 134 134 135 135 135 135 135 128 128 124 112 98 83 86 98 110 109 110 112 110 113 108 99 93 91 90 91 96 91 94 101 100 102 102 102 103 106 107 106 100 96 22 341 314 333 321 315 321 323 324 78 97 95 87 82 84 83 86 86 85 80 76 75 76 76 75 76 75 74
113 117 119 125 131 130 131 130 132 136 138 139 139 139 139 138 136 136 136 135 135 136 133 130 125 123 112 103 89 85 87 104 113 112 117 113 117 114 102 93 91 85 80 75 81 91 96 101 104 106 109 112 109 110 109 110 91 313 326 333 323 335 330 308 307 202 88 78 71 77 80 86 86 88 88 85 85 84 80 79 76 76 74 74 74
124 118 115 130 134 129 130 132 134 136 140 140 139 138 137 135 136 136 137 134 136 136 135 132 125 114 114 106 91 87 86 93 104 111 110 112 111 108 98 99 97 93 92 92 93 107 113 114 112 112 113 112 108 103 102 108 103 342 329 336 344 341 329 316 256 89 99 93 102 95 90 83 86 90 89 90 90 87 84 81 80 77 73 73 75
117 114 127 132 133 131 128 132 137 139 141 139 137 134 135 134 137 137 135 133 136 135 130 128 122 121 118 104 97 96 89 90 100 107 107 108 108 108 102 97 94 89 85 90 92 99 117 125 121 115 114 109 109 105 107 112 23 346 347 346 341 334 336 330 74 75 76 84 81 87 83 85 89 89 89 92 90 87 85 84 81 78 78 76 76
117 127 133 132 134 137 134 134 137 137 132 129 127 130 133 134 134 134 133 137 135 131 128 129 123 114 112 112 107 105 103 101 104 107 109 111 114 106 96 94 92 85 82 86 95 96 109 123 124 115 108 108 109 110 108 90 38 358 348 342 337 327 329 326 93 103 105 100 100 100 99 99 100 93 90 91 95 89 82 81 82 84 84 81 77
129 131 128 135 136 141 141 138 132 125 120 125 129 135 137 136 135 139 139 133 126 122 128 124 126 125 116 118 113 112 115 115 108 108 110 113 115 116 96 94 91 87 80 86 95 99 103 112 114 112 108 109 112 109 110 70 31 356 340 343 309 309 299 304 117 87 89 90 90 81 81 83 84 91 94 91 87 87 83 78 75 76 82 84 81
129 127 134 138 140 144 140 142 133 124 124 127 132 135 137 129 129 131 125 116 119 122 127 128 126 117 116 119 118 115 114 113 110 111 110 109 112 114 109 87 89 84 80 86 97 107 108 108 111 109 110 109 106 108 96 68 23 342 321 288 287 298 305 309 106 117 111 111 108 106 94 78 83 95 96 91 89 87 83 78 81 89 85 79 76
127 127 137 141 145 140 141 139 137 136 133 128 125 125 125 122 114 117 114 111 105 103 106 116 117 121 125 126 123 116 113 112 110 106 107 107 106 121 115 98 88 85 82 89 107 110 116 114 113 114 111 109 109 105 96 67 341 286 270 290 314 308 327 347 82 72 72 75 78 78 80 86 87 99 95 95 92 91 87 91 92 85 85 85 80
48 112 140 141 136 135 134 130 135 133 131 122 127 120 121 114 112 115 111 107 100 99 107 117 125 130 136 138 133 131 125 122 118 116 112 115 124 114 132 123 94 92 87 95 115 123 118 121 120 121 121 114 107 113 126 137 253 290 306 310 315 334 328 314 110 85 77 74 81 90 93 105 107 96 101 101 102 99 96 90 85 87 84 80 80
100 165 49 27 131 132 120 132 134 124 129 124 121 130 123 115 110 105 111 108 108 106 112 121 133 139 148 146 142 136 130 126 130 129 135 139 143 175 142 151 120 89 104 122 129 134 132 130 129 133 127 123 121 125 141 228 311 304 304 311 314 314 306 121 82 89 89 90 95 95 113 115 105 103 97 96 98 98 96 92 91 87 83 77 74
162 105 61 54 94 111 118 124 121 131 131 128 123 123 125 117 105 104 107 108 113 118 116 136 140 152 157 160 157 167 157 139 153 146 145 154 167 160 163 164 153 104 102 142 154 151 143 138 142 142 141 134 133 135 135 303 289 302 298 301 313 315 274 104 99 99 107 102 99 105 111 104 108 111 109 104 98 98 97 101 94 83 84 85 87
130 99 103 90 78 46 76 104 104 117 125 118 118 119 130 143 147 137 143 132 135 140 152 168 179 165 180 168 188 202 179 152 208 137 181 147 167 152 164 164 154 117 114 138 161 165 153 154 156 160 155 147 151 154 180 240 263 268 284 290 300 288 290 76 101 101 98 100 102 112 112 116 116 109 110 111 105 99 96 92 97 95 89 86 84
107 105 92 56 56 84 103 109 107 100 84 60 73 120 144 161 153 151 157 164 169 173 180 201 191 178 187 192 187 72 6 338 205 163 162 164 155 174 156 177 176 189 156 175 167 169 170 170 175 174 170 170 181 179 192 184 223 244 256 280 273 262 62 86 79 82 86 99 100 116 116 110 108 108 105 103 108 108 101 97 94 97 101 99 95
108 98 107 91 108 136 131 123 112 98 99 124 87 39 159 150 152 156 152 174 179 134 18 282 256 165 188 99 79 101 10 342 295 221 139 142 139 188 181 177 198 201 200 178 183 180 181 192 193 183 188 204 234 192 186 182 199 197 227 232 245 201 128 107 99 99 109 108 121 124 117 120 121 116 114 115 115 112 104 98 95 98 95 95 96
83 67 103 134 160 154 149 148 135 127 132 134 141 186 184 143 109 128 131 146 162 180 189 240 227 141 319 125 154 140 178 117 256 326 187 151 163 175 186 195 189 202 192 222 185 180 189 200 203 201 218 220 231 238 189 182 198 190 209 223 211 191 117 100 106 100 93 96 116 125 123 119 126 126 121 120 116 113 108 103 102 100 102 101 104
106 143 160 147 160 135 123 117 101 104 120 152 170 169 165 137 148 168 158 175 170 166 192 222 188 170 174 161 168 159 150 121 224 237 279 226 168 168 176 198 194 201 180 230 202 161 209 208 204 198 224 227 226 240 190 177 209 157 132 173 270 202 159 109 101 105 114 124 117 124 134 142 152 134 130 123 121 115 114 115 113 112 108 119 117
141 161 145 133 121 129 133 135 133 137 153 165 166 152 164 171 166 174 178 177 162 161 201 223 177 162 181 183 163 171 118 229 204 226 203 292 258 162 180 180 192 212 173 227 209 168 215 203 208 216 222 246 248 211 173 188 210 154 147 181 215 200 112 118 122 123 124 124 130 131 129 127 133 125 135 143 120 127 128 121 117 130 141 126 117
160 116 109 109 124 128 139 148 143 144 154 169 173 168 177 180 179 172 183 179 166 165 200 218 213 173 177 190 190 184 168 176 194 194 194 297 271 273 194 173 173 193 208 229 233 180 207 207 206 212 233 238 244 207 206 186 263 155 200 172 40 205 163 120 129 129 129 126 133 143 137 124 107 105 107 125 131 132 137 135 134 139 135 125 131
123 115 127 131 139 141 137 130 142 152 160 166 172 178 185 179 173 160 182 188 171 174 193 189 213 214 191 184 194 187 176 168 182 173 167 208 243 271 314 140 178 173 193 225 241 200 226 221 215 217 227 245 252 188 226 128 234 278 104 209 182 39 79 108 130 132 126 133 139 145 146 143 147 159 153 154 151 146 141 152 146 148 147 131 127
130 134 138 140 140 141 144 152 161 162 158 169 176 174 198 191 196 177 176 183 191 175 182 183 201 209 208 199 192 184 180 178 179 173 179 194 218 249 272 220 299 133 170 219 235 182 230 246 248 224 229 216 236 212 176 118 213 204 233 89 80 263 30 136 172 126 126 130 130 141 137 126 119 88 154 133 149 156 153 135 129 149 135 134 136
147 150 145 144 154 155 162 165 164 165 165 183 173 188 180 190 207 193 196 199 188 184 182 179 190 198 221 200 192 178 194 195 180 175 179 178 181 210 227 302 297 65 46 311 270 199 200 220 247 245 255 290 343 302 152 203 229 179 225 131 203 128 204 280 93 119 129 136 135 136 139 136 137 138 153 162 159 174 142 151 153 125 142 147 145
142 144 144 148 160 164 166 168 165 162 164 168 168 176 184 192 191 216 210 199 190 193 174 170 183 195 200 193 200 193 212 195 189 164 176 165 173 182 227 352 339 332 202 195 285 256 211 210 237 259 268 28 16 347 285 200 225 204 170 165 146 173 186 267 61 102 133 135 143 140 148 147 143 154 154 147 187 167 157 151 144 147 157 154 148
133 129 127 144 152 150 154 162 173 166 177 174 174 173 193 186 183 195 213 212 206 205 173 181 175 184 255 253 221 211 216 178 166 157 147 156 151 163 173 203 202 253 271 222 238 272 240 214 273 304 330 47 71 275 286 258 228 213 165 112 196 202 176 125 86 86 118 142 138 143 155 154 155 152 160 172 184 192 164 158 154 162 165 160 158
131 127 135 144 136 142 139 144 164 173 175 163 166 180 192 195 195 201 207 192 201 209 194 156 175 161 172 206 234 244 242 187 141 162 115 134 160 178 184 192 215 212 228 272 246 45 347 282 219 252 269 117 215 222 286 270 247 212 114 163 186 217 112 163 115 82 74 112 130 147 150 153 158 157 164 173 151 151 149 162 167 166 170 164 164
129 129 151 140 145 136 153 161 167 172 180 162 177 189 191 209 196 204 209 197 198 200 202 190 175 185 175 190 192 216 210 234 111 103 128 242 170 180 189 195 205 210 222 213 289 125 166 277 214 203 293 243 191 207 217 268 297 29 251 189 226 95 76 94 106 124 160 141 127 146 144 151 159 165 172 159 157 149 155 174 161 164 164 165 173
126 132 134 144 152 145 154 155 158 167 178 171 180 211 190 217 228 193 223 233 257 295 273 234 182 213 192 175 158 176 125 161 203 190 183 195 157 171 193 166 188 208 219 187 244 226 182 218 243 190 190 250 242 154 312 288 21 327 305 275 62 116 152 109 130 173 159 132 163 131 139 164 159 170 164 159 157 161 162 169 165 163 172 177 179
129 125 130 149 156 138 132 155 149 180 181 176 189 196 228 234 260 344 328 326 313 275 310 329 7 314 341 12 7 66 107 188 221 209 185 314 359 101 160 177 185 214 218 199 225 248 208 191 213 225 174 225 253 182 199 234 320 286 264 258 147 173 155 151 156 196 152 172 163 130 139 164 175 166 160 156 153 150 167 172 167 174 179 182 183
121 92 118 139 123 132 147 123 135 164 148 164 173 179 224 250 299 324 331 275 286 308 341 55 52 6 26 50 14 327 185 253 205 183 174 190 175 204 199 187 191 208 208 197 208 252 268 219 221 234 225 217 303 331 252 155 220 173 257 270 203 195 175 162 172 124 156 157 117 137 127 184 192 155 163 150 148 149 164 174 174 180 184 186 185
58 59 87 96 94 113 104 116 136 110 68 95 118 171 211 220 226 215 224 255 215 238 41 58 59 45 136 200 210 224 256 218 218 206 165 182 181 177 184 187 184 194 201 198 211 207 218 230 227 225 174 103 148 253 287 279 222 312 310 271 198 208 177 127 121 137 105 74 123 161 142 153 192 190 122 141 138 155 157 165 167 176 181 189 189
62 106 79 82 103 84 104 122 103 87 127 170 156 208 244 218 213 202 206 172 330 294 109 103 166 166 200 202 207 211 225 206 171 223 179 164 186 183 168 182 193 198 200 203 210 212 204 214 225 226 243 148 148 175 239 247 323 251 239 241 202 180 147 141 151 119 114 138 166 138 127 105 227 151 113 124 145 157 160 164 173 180 178 189 194
38 40 71 76 56 78 106 79 84 93 46 55 36 355 359 298 292 289 342 58 140 317 70 94 170 136 128 185 210 212 223 209 154 159 180 169 185 195 197 182 186 203 199 208 208 209 211 215 213 162 201 233 218 159 204 108 208 239 239 228 194 183 145 147 173 165 169 162 177 168 168 145 231 143 126 152 149 163 165 167 181 179 165 166 197
48 51 49 48 53 47 52 62 56 70 74 53 49 222 237 322 333 38 8 30 38 164 197 178 204 194 194 192 190 208 239 214 156 187 192 197 192 196 202 208 195 202 205 203 202 206 202 204 190 198 188 214 228 178 165 142 199 219 219 191 176 189 62 287 214 198 195 173 180 213 173 176 184 190 141 162 168 178 172 172 173 161 161 167 181
48 44 38 45 50 50 48 46 49 34 55 25 352 15 25 4 332 10 271 179 131 201 197 218 205 217 200 189 208 221 227 235 199 195 204 201 199 198 203 206 207 196 200 204 202 201 199 198 184 192 194 211 238 235 205 179 198 230 226 169 185 177 228 240 231 245 190 198 172 203 201 196 177 173 168 160 177 188 190 167 160 167 172 182 181
39 35 26 28 35 35 40 46 53 35 47 74 0 351 350 348 280 290 347 281 96 189 222 193 230 225 247 226 219 214 222 234 219 203 219 220 208 207 214 208 204 195 199 207 207 202 203 193 183 185 179 202 205 235 223 197 163 218 230 213 156 175 196 218 205 211 198 207 180 204 213 205 178 183 171 184 171 186 177 172 193 181 184 190 180
37 34 29 27 20 19 15 34 38 31 49 26 4 22 334 332 316 319 234 254 166 252 221 230 247 251 252 219 208 204 218 230 238 223 215 216 214 216 216 216 205 198 198 211 213 207 204 199 189 184 191 194 205 231 236 211 183 203 241 164 142 218 224 171 170 193 174 206 205 189 199 197 197 203 170 190 198 172 181 163 162 188 186 181 160
39 32 27 26 28 26 22 18 27 25 14 23 22 359 345 307 312 305 307 219 254 188 254 260 218 215 234 235 209 208 217 229 241 246 244 232 229 220 218 220 212 206 202 213 221 213 211 212 193 189 197 204 206 201 229 213 212 228 249 227 114 192 174 128 146 210 160 217 209 195 186 200 189 207 213 189 190 173 183 163 176 163 164 174 162
33 32 31 26 27 27 22 20 27 31 17 7 1 360 352 336 331 329 315 320 313 258 274 283 288 271 261 264 272 220 212 226 238 256 257 245 238 227 219 227 226 218 207 209 216 220 216 214 211 190 198 191 193 214 211 224 5 264 278 275 239 191 200 139 192 89 197 217 226 210 197 195 209 210 212 207 198 167 204 158 170 169 160 168 155
41 31 24 23 26 19 21 19 19 26 21 4 356 1 351 352 336 333 343 330 327 305 291 281 260 251 272 276 265 263 262 273 292 284 273 283 267 244 223 233 236 225 222 218 220 222 228 220 214 202 190 200 198 205 205 199 194 241 250 252 267 243 212 135 128 163 205 182 200 208 223 187 218 235 215 214 210 175 164 134 170 160 160 151 160
43 38 28 26 17 15 24 24 17 17 13 6 360 351 346 341 330 347 345 339 339 337 330 317 313 314 287 315 318 306 283 272 243 252 272 250 277 265 231 229 233 255 239 232 224 224 224 222 211 202 190 199 206 204 188 189 175 205 218 221 238 243 201 197 185 173 189 188 185 181 194 187 205 241 217 207 197 177 171 165 173 165 155 155 165
39 40 35 31 23 16 21 26 20 16 8 3 358 353 351 354 348 351 344 339 342 338 330 322 316 318 306 21 343 303 305 297 280 281 285 317 340 306 289 247 233 238 239 243 235 232 230 241 228 212 196 193 191 196 201 184 188 191 203 224 208 204 234 206 195 180 184 197 172 182 182 179 200 217 208 194 204 174 184 164 163 161 165 172 170
48 46 39 32 25 20 20 31 26 14 4 2 353 358 356 357 355 357 351 348 346 335 329 325 321 311 315 320 219 244 275 291 315 338 343 334 316 283 275 259 222 227 233 233 233 232 230 227 229 214 207 201 190 185 190 189 185 198 207 223 213 204 197 205 190 188 182 167 191 235 187 200 196 193 196 190 190 189 188 181 167 168 177 173 152